Creal Reef Observation History
Time Wind Speed Temp Pressure Rel. Hum Rain
04/07:30am SE 24-29 kts 22.2°c 1020.4 hPa n/a n/a
04/07:00am SSE 22-28 kts 22.3°c 1020.0 hPa n/a n/a
04/06:30am SSE 23-27 kts 22.0°c 1019.8 hPa n/a n/a
04/06:00am SE 21-27 kts 22.0°c 1019.4 hPa n/a n/a
04/05:30am SE 23-28 kts 21.8°c 1019.3 hPa n/a n/a
04/05:00am SSE 20-26 kts 21.8°c 1018.9 hPa n/a n/a
04/04:30am SE 22-27 kts 21.8°c 1019.0 hPa n/a n/a
04/04:00am SE 20-26 kts 21.9°c 1019.1 hPa n/a n/a
04/03:30am SE 20-26 kts 21.7°c 1019.2 hPa n/a n/a
04/03:00am SSE 20-25 kts 21.5°c 1019.2 hPa n/a n/a
04/02:30am SSE 20-25 kts 21.5°c 1019.4 hPa n/a n/a
04/02:00am SE 19-22 kts 21.2°c 1019.7 hPa n/a n/a
04/01:30am SSE 17-22 kts 21.5°c 1020.1 hPa n/a n/a
04/01:00am SSE 17-22 kts 21.3°c 1020.4 hPa n/a n/a
04/12:30am SE 16-21 kts 21.4°c 1020.9 hPa n/a n/a
04/12:00am SSE 16-21 kts 21.2°c 1020.6 hPa n/a n/a
Time Wind Speed Temp Pressure Rel. Hum Rain
03/11:30pm SSE 15-19 kts 21.0°c 1020.7 hPa n/a n/a
03/11:00pm SSE 15-18 kts 21.1°c 1020.8 hPa n/a n/a
03/10:30pm SSE 14-18 kts 20.9°c 1021.2 hPa n/a n/a
03/10:00pm SSE 13-16 kts 20.8°c 1021.3 hPa n/a n/a
03/09:30pm SSE 15-19 kts 20.8°c 1021.5 hPa n/a n/a
03/09:00pm SSE 15-19 kts 20.4°c 1021.2 hPa n/a n/a
03/08:30pm S 15-19 kts 20.4°c 1021.3 hPa n/a n/a
03/08:00pm S 15-18 kts 20.2°c 1021.0 hPa n/a n/a
03/07:30pm S 15-19 kts 20.2°c 1020.9 hPa n/a n/a
03/07:00pm S 15-19 kts 20.3°c 1020.4 hPa n/a n/a
03/06:30pm S 15-19 kts 20.6°c 1020.3 hPa n/a n/a
03/06:00pm S 16-21 kts 20.5°c 1019.7 hPa n/a n/a
03/05:30pm SSE 16-21 kts 20.6°c 1019.5 hPa n/a n/a
03/05:00pm SSE 16-19 kts 20.9°c 1019.1 hPa n/a n/a
03/04:30pm SSE 18-23 kts 20.7°c 1018.9 hPa n/a n/a
03/04:00pm SSE 17-21 kts 21.0°c 1018.4 hPa n/a n/a
03/03:30pm SSE 16-22 kts 21.3°c 1018.4 hPa n/a n/a
03/03:00pm SSE 16-21 kts 21.4°c 1018.3 hPa n/a n/a
03/02:30pm SSE 15-19 kts 21.5°c 1018.7 hPa n/a n/a
03/02:00pm SSE 16-20 kts 21.7°c 1018.6 hPa n/a n/a
03/01:30pm SSE 16-20 kts 21.7°c 1018.9 hPa n/a n/a
03/01:00pm SSE 16-21 kts 21.7°c 1019.1 hPa n/a n/a
03/12:30pm SE 17-20 kts 21.9°c 1019.5 hPa n/a n/a
03/12:00pm SE 17-21 kts 21.9°c 1019.7 hPa n/a n/a
03/11:30am SE 18-22 kts 22.0°c 1020.0 hPa n/a n/a
03/11:00am SE 17-21 kts 22.3°c 1020.3 hPa n/a n/a
03/10:30am SE 19-22 kts 22.4°c 1020.6 hPa n/a n/a
03/10:00am SSE 19-23 kts 22.7°c 1020.6 hPa n/a n/a
03/09:44am SE 16-20 kts 22.8°c 1020.8 hPa n/a n/a
03/09:30am SSE 19-23 kts 22.3°c 1020.8 hPa n/a n/a
03/09:00am SSE 19-25 kts 22.3°c 1020.6 hPa n/a n/a
03/08:30am SSE 18-23 kts 22.2°c 1020.6 hPa n/a n/a
03/08:00am SSE 17-22 kts 22.3°c 1020.1 hPa n/a n/a
03/07:30am SSE 17-22 kts 22.3°c 1020.1 hPa n/a n/a
03/07:00am SSE 17-23 kts 22.0°c 1019.7 hPa n/a n/a
03/06:30am SSE 17-21 kts 22.0°c 1019.4 hPa n/a n/a
03/06:00am SSE 18-21 kts 22.1°c 1019.0 hPa n/a n/a
03/05:30am SSE 17-22 kts 22.0°c 1018.8 hPa n/a n/a
03/05:00am SSE 17-21 kts 21.9°c 1018.5 hPa n/a n/a
03/04:30am S 17-21 kts 22.1°c 1018.5 hPa n/a n/a
03/04:00am S 20-23 kts 22.2°c 1018.4 hPa n/a n/a
03/03:30am S 20-23 kts 22.3°c 1018.3 hPa n/a n/a
03/03:00am S 20-23 kts 22.5°c 1018.1 hPa n/a n/a
03/02:30am SSE 19-23 kts 22.8°c 1018.5 hPa n/a n/a
03/02:00am S 20-22 kts 22.8°c 1018.5 hPa n/a n/a
03/01:30am SSE 19-23 kts 23.0°c 1019.1 hPa n/a n/a
03/01:00am SSE 19-22 kts 23.0°c 1019.2 hPa n/a n/a
03/12:30am SSE 19-21 kts 23.2°c 1019.4 hPa n/a n/a
03/12:00am SSE 17-21 kts 23.1°c 1019.3 hPa n/a n/a
Time Wind Speed Temp Pressure Rel. Hum Rain
02/11:30pm SSE 16-21 kts 23.2°c 1019.6 hPa n/a n/a
02/11:00pm SSE 17-20 kts 23.3°c 1019.7 hPa n/a n/a
02/10:30pm SSE 16-19 kts 23.4°c 1019.9 hPa n/a n/a
02/10:00pm SSE 15-18 kts 23.3°c 1019.7 hPa n/a n/a
02/09:30pm SSE 16-21 kts 23.2°c 1019.8 hPa n/a n/a
02/09:00pm SSE 18-19 kts 23.2°c 1019.6 hPa n/a n/a
02/08:30pm SSE 16-19 kts 23.2°c 1019.5 hPa n/a n/a
02/08:00pm SSE 15-19 kts 23.1°c 1019.3 hPa n/a n/a
02/07:30pm SSE 15-17 kts 23.1°c 1019.2 hPa n/a n/a
02/07:00pm SSE 14-16 kts 23.0°c 1018.8 hPa n/a n/a
02/06:30pm SSE 14-16 kts 23.1°c 1018.6 hPa n/a n/a
02/06:00pm S 13-15 kts 23.1°c 1018.3 hPa n/a n/a
02/05:30pm SSE 12-13 kts 23.1°c 1018.0 hPa n/a n/a
02/05:00pm S 13-15 kts 23.1°c 1017.6 hPa n/a n/a
02/04:30pm S 14-15 kts 23.3°c 1017.5 hPa n/a n/a
02/04:00pm S 14-16 kts 23.5°c 1017.0 hPa n/a n/a
02/03:30pm S 14-16 kts 23.4°c 1016.8 hPa n/a n/a
02/03:00pm S 14-16 kts 23.5°c 1016.8 hPa n/a n/a
02/02:30pm S 12-14 kts 23.7°c 1017.0 hPa n/a n/a
02/02:00pm S 12-14 kts 23.7°c 1017.0 hPa n/a n/a
02/01:30pm SSW 12-14 kts 23.6°c 1017.2 hPa n/a n/a
02/01:00pm S 11-13 kts 23.5°c 1017.5 hPa n/a n/a
02/12:30pm SSW 12-14 kts 23.7°c 1018.1 hPa n/a n/a
02/12:00pm SSW 9-11 kts 23.6°c 1018.4 hPa n/a n/a
02/11:30am SSW 7-9 kts 23.9°c 1018.8 hPa n/a n/a
02/11:00am SSW 5-7 kts 23.6°c 1018.9 hPa n/a n/a
02/10:30am SSW 5-6 kts 24.3°c 1019.0 hPa n/a n/a
02/10:00am SSW 6-7 kts 24.3°c 1019.0 hPa n/a n/a
02/09:30am SSW 5-6 kts 23.8°c 1019.2 hPa n/a n/a
02/09:00am S 3-4 kts 24.1°c 1018.7 hPa n/a n/a
02/08:30am SW 4-5 kts 24.2°c 1018.7 hPa n/a n/a
02/08:00am CALM 0 kts 25.0°c 1018.4 hPa n/a n/a
02/07:30am CALM 0 kts 24.4°c 1018.1 hPa n/a n/a
02/07:00am NE 2-5 kts 23.6°c 1017.6 hPa n/a n/a
02/06:30am NNE 3-4 kts 22.9°c 1017.5 hPa n/a n/a
02/06:00am N 3-4 kts 23.0°c 1017.1 hPa n/a n/a
02/05:30am NNE 5-6 kts 23.0°c 1016.7 hPa n/a n/a
02/05:00am NNE 5-6 kts 23.0°c 1016.4 hPa n/a n/a
02/04:30am NE 3-4 kts 22.9°c 1016.5 hPa n/a n/a
02/04:00am NNE 1-3 kts 22.9°c 1016.4 hPa n/a n/a
02/03:30am NNE 4-5 kts 23.0°c 1016.4 hPa n/a n/a
02/03:00am NNE 3-6 kts 23.0°c 1016.4 hPa n/a n/a
02/02:30am NE 5-6 kts 23.0°c 1016.7 hPa n/a n/a
02/02:00am NE 5-7 kts 23.0°c 1016.8 hPa n/a n/a
02/01:30am NE 8-9 kts 23.1°c 1016.8 hPa n/a n/a
02/01:00am NE 7-9 kts 23.1°c 1016.8 hPa n/a n/a
02/12:30am ENE 6-7 kts 23.1°c 1017.2 hPa n/a n/a
02/12:00am ENE 7-9 kts 23.2°c 1017.0 hPa n/a n/a